STARLINK-30128, 56832

Orbit data source: Space-Track

STARLINK-30128, 56832 is a payload satellite owned by SpaceX/Seattle (US) in LEO that was launched on Sun, 04 Jun 2023 UTC via an FALCON 9 launch vehicle from the Air Force Eastern Test Range (AFETR). Payload-class satellites include a variety of spacecraft equipped with specific instruments for various scientific and technological missions. These include communications satellites like Starlink; space stations such as the ISS; scientific satellites like the Hubble; Earth observation satellites from companies like Planet Labs, Umbra, and HawkEye 360; GPS; miniature CubeSats for education and research; and military/defense satellites.

Loading next visibility...
Identifier
56832, 2023-079K
Orbit
LEO
Country
Flag of USUS
Related business
Manufacturer
SpaceX/Seattle
Mission
Operational Commercial Communications
Bus & Motor
STARLINK V2M, Unknown motor
Mass
730 kg wet, ~700 kg dry
Launch date (UTC)
2023-06-04 (3 years ago)
Launch vehicle
FALCON 9
Launch site
Air Force Eastern Test Range (AFETR)
Object type
Payload
Rocket body
Debris
Shape & HBR
Box + 2 Pan, 17.7 m
Radar Cross Section
33.884 m², Large (>1 m²)

Expand to show TLE details & history
Last TLE update: 2 days ago

TLE from 2 days ago
0 STARLINK-30128
1 56832U 23079K   26171.16633246  .00001374  00000-0  59464-4 0  9990
2 56832  43.0010 222.5008 0001298 274.8626  85.2077 15.27561783162450
Epoch: 2026-06-20T03:59Z
TLE epoch observation values (Epoch: 2026-06-20T03:59:31.124Z)
Latitude
-0.00005°
Longitude
-105.76379°
Altitude
482.805 km
Speed
7.626 km/s
True Right ascension
14h 50m 00s
True Declination
0° 00' 00"
Sunlit
Object was in full shadow at epoch
Visualization orbit readout
Latitude
Unknown
Longitude
Unknown
Altitude
Unknown
Speed
Unknown
Apparent Right ascension
Unknown
Apparent Declination
Unknown
Sunlit
N/A
Visualization observer readout
Local Sidereal Time
00:37:45
Azimuth
Unknown
Elevation
Unknown
Doppler factor
Unknown
Orbital elements
Apogee altitude
485.939 km
Perigee altitude
484.158 km
Semi-major axis
6,863.186 km
Eccentricity
0.00013
Inclination
43.001°
RAAN
222.5008°
Arg. of periapsis
274.8626°
True anomaly
85.22252°
Mean anomaly
85.2077°
Eccentric anomaly
85.21511°
Mean motion
3.81728 °/min
Orbital period
94.31 mins
BSTAR
0.000059464
Loading maneuver chart data...
Computing Atmospheric mass density...
Loading historical data...
Loading historical data...
Loading historical data...
Loading historical data...
Loading historical data...
Loading historical data...
Loading historical data...

Documentation

Showing up to 5 results
|